sat.trackr.live / text

‹ back to catalog

STARLINK-37446

NORAD 68808 · 2026-089G

PAYLOAD ACTIVE UNKNOWN

§ Identity

Operator
Country
US
Launch date
2026-04-23
Launch site
AFWTR
Launch vehicle
Mass (kg)
RCS (m²)

Purposes: comms

External: N2YO · Heavens-Above · Gunter

§ Orbital elements

Epoch: 2026-05-25T02:48:46.213056Z

Period
91.42 min
Inclination
97.2853°
Eccentricity
0.0001901
Mean motion
15.75183077 rev/d
Perigee alt
342.8 km
Apogee alt
345.4 km
Semi-major
6,722.2 km
B*
1.6983e-3
RAAN
351.7569°
Arg perigee
71.6674°
Mean anomaly
288.4798°
Rev number
506

§ Raw data

STARLINK-374461 68808U 26089G   26145.11720154  .00261006  00000+0  16983-2 0  99972 68808  97.2853 351.7569 0001901  71.6674 288.4798 15.75183077  5065

JSON: /api/v1/satellites/68808 · /tle

For live sub-satellite position, see the globe view (requires WebGL).

§ Visibility from observer

Set your observer location to see the next 7 days of passes ≥ 10°. The values pass through the URL so the page stays shareable.

No JS? Fill the form by hand. The geolocation button needs JavaScript.